sat.trackr.live / text

‹ back to catalog

STARLINK-34883

NORAD 65426 · 2025-192Y

PAYLOAD ACTIVE UNKNOWN

§ Identity

Operator
Country
US
Launch date
2025-08-31
Launch site
AFETR
Launch vehicle
Mass (kg)
RCS (m²)

Purposes: comms

External: N2YO · Heavens-Above · Gunter

§ Orbital elements

Epoch: 2026-05-24T22:49:19.029216Z

Period
94.10 min
Inclination
53.1551°
Eccentricity
0.0000791
Mean motion
15.30210105 rev/d
Perigee alt
474.6 km
Apogee alt
475.7 km
Semi-major
6,853.3 km
B*
6.5431e-4
RAAN
237.8732°
Arg perigee
0.5626°
Mean anomaly
359.5375°
Rev number
4,105

§ Raw data

STARLINK-348831 65426U 25192Y   26144.95091469  .00019076  00000+0  65431-3 0  99962 65426  53.1551 237.8732 0000791   0.5626 359.5375 15.30210105 41058

JSON: /api/v1/satellites/65426 · /tle

For live sub-satellite position, see the globe view (requires WebGL).

§ Visibility from observer

Set your observer location to see the next 7 days of passes ≥ 10°. The values pass through the URL so the page stays shareable.

No JS? Fill the form by hand. The geolocation button needs JavaScript.